Find Starlink 37703

NORAD ID: 100418 Int'l Des: 2026-192 Owner: SPXS Country: US Constellation: starlink operational

当前视图

正在加载3D地球...

About Starlink 37703

Starlink 37703 (NORAD 100418) is a starlink constellation satellite launched Aug 21, 2026 by SPXS of US. with a mass of 575.00 kg.

即将过境

Passes for default location (London). Set your location on the main map for personalized predictions.

高度历史

Loading altitude history...

两行轨道根数

1 A0418U 26192Q 26263.61375700 -.00423257 00000-0 -82076-2 0 9991
2 A0418 53.1591 305.0289 0002712 52.6963 307.4293 15.48650510 5939
Epoch: Sep 20, 2026 • Age: 12 hours

当前状态

高度 433.5 km
远地点 / 近地点 N/A
速度 7.65 km/s
星下点 -35.07°S, 132.83°W
发射日期 Aug 21, 2026
运行时间 30 days
类型 internet

技术详情

分类 Payload
质量 575.00 kg
干质量 530.00 kg
长度 0.30 m
跨度 29.00 m
形状 ? Box + pan
制造商 SPXS
平台类型 Starlink V2MO
阶段状态 In Orbit
所有者/国家 SPXS/US

Most Searched